Belfast, United Kingdom

4:21 AM GMT on February 08, 2016 (GMT +0000)
Aldergrove

Weather History for EGAA - September, 2013

Change the Weather History Date:

Friday, September 20, 2013

  Actual Average Record
Temperature  
Mean Temperature 56 °F -  
Max Temperature 62 °F 57 °F 71 °F (1998)
Min Temperature 49 °F 45 °F 41 °F (2003)
Degree Days  
Heating Degree Days 10    
Growing Degree Days 6 (Base 50)    
Moisture  
Dew Point 48 °F    
Average Humidity 79    
Maximum Humidity 94    
Minimum Humidity 53    
Precipitation  
Precipitation 0.00 in 0.11 in - ()
Sea Level Pressure  
Sea Level Pressure 29.99 in    
Wind  
Wind Speed 8 mph ()    
Max Wind Speed 14 mph    
Max Gust Speed -    
Visibility 7.2 miles    
Events      
Averages and records for this station are not official NWS values.
T = Trace of Precipitation, MM = Missing Value Source: Averaged Metar Reports

Daily Weather History Graph

Daily Weather History Graph

Search for Another Location

Airport or City:

Trip Planner

Search our weather history database for the weather conditions in past years. The results will help you decide how hot, cold, wet, or windy it might be!

Date:

Astronomy

Sep. 20, 2013 Rise Set
Actual Time 7:06 AM IST 7:28 PM IST
Civil Twilight 6:30 AM IST 8:04 PM IST
Nautical Twilight 5:47 AM IST 8:47 PM IST
Astronomical Twilight 5:02 AM IST 9:32 PM IST
Moon 7:33 PM IST (9/20) 8:23 AM IST (9/20)
Length of Visible Light 13h 33m
Length of Day
12h 21m
Full, 99% of the Moon is Illuminated
Sep 20
Full
Sep 27
Last Quarter
Oct 5
New
Oct 12
First Quarter
Oct 19
Full

Hourly Weather History & Observations

Time (IST) Temp. Windchill Dew Point Humidity Pressure Visibility Wind Dir Wind Speed Gust Speed Precip Events Conditions
12:20 AM 51.8 °F - 50.0 °F 94% 29.89 in 6.2 mi West 13.8 mph - N/A   Mostly Cloudy
12:50 AM 51 °F - 48 °F 87% 29.91 in 25 mi West 6.9 mph - -   Scattered Clouds
12:50 AM 51.8 °F - 48.2 °F 88% 29.89 in 6.2 mi West 10.4 mph - N/A   Scattered Clouds
1:20 AM 50.0 °F - 48.2 °F 94% 29.92 in 6.2 mi West 12.7 mph - N/A   Partly Cloudy
1:50 AM 50.0 °F - 48.2 °F 94% 29.92 in 6.2 mi West 12.7 mph - N/A   Scattered Clouds
2:20 AM 51.8 °F - 48.2 °F 88% 29.92 in 6.2 mi West 12.7 mph - N/A   Scattered Clouds
2:50 AM 51.8 °F - 48.2 °F 88% 29.92 in 6.2 mi West 9.2 mph - N/A   Scattered Clouds
3:20 AM 50.0 °F - 46.4 °F 87% 29.92 in 6.2 mi West 6.9 mph - N/A   Mostly Cloudy
3:50 AM 50 °F - 46 °F 80% 29.94 in 14 mi WSW 5.8 mph - -   Partly Cloudy
3:50 AM 46.4 °F 42.4 °F 44.6 °F 93% 29.92 in 6.2 mi WSW 8.1 mph - N/A   Scattered Clouds
4:20 AM 50.0 °F - 46.4 °F 87% 29.95 in 6.2 mi West 8.1 mph - N/A   Overcast
4:50 AM 48.2 °F - 46.4 °F 93% 29.95 in 6.2 mi West 6.9 mph - N/A   Overcast
5:20 AM 48.2 °F - 44.6 °F 87% 29.95 in 6.2 mi SW 8.1 mph - N/A   Scattered Clouds
5:50 AM 50.0 °F - 46.4 °F 87% 29.95 in 6.2 mi SW 8.1 mph - N/A   Mostly Cloudy
6:20 AM 50.0 °F - 48.2 °F 94% 29.95 in 6.2 mi SSW 8.1 mph - N/A   Mostly Cloudy
6:50 AM 50 °F - 47 °F 86% 29.97 in 16 mi SSW 5.8 mph - -  
6:50 AM 50.0 °F - 46.4 °F 87% 29.98 in 6.2 mi SSW 4.6 mph - N/A   Mostly Cloudy
7:20 AM 50.0 °F - 48.2 °F 94% 29.98 in 6.2 mi SSW 5.8 mph - N/A   Mostly Cloudy
7:50 AM 51.8 °F - 48.2 °F 88% 29.98 in 6.2 mi SW 8.1 mph - N/A   Mostly Cloudy
8:20 AM 50.0 °F - 48.2 °F 94% 29.98 in 6.2 mi SSW 6.9 mph - N/A   Mostly Cloudy
8:50 AM 50.0 °F - 48.2 °F 94% 29.98 in 6.2 mi SSW 6.9 mph - N/A   Mostly Cloudy
9:20 AM 51.8 °F - 48.2 °F 88% 30.01 in 6.2 mi SSW 5.8 mph - N/A   Mostly Cloudy
9:50 AM 52 °F - 48 °F 81% 30.01 in 12 mi South 6.9 mph - -   Overcast
9:50 AM 51.8 °F - 48.2 °F 88% 30.01 in 6.2 mi SSW 6.9 mph - N/A   Mostly Cloudy
10:20 AM 51.8 °F - 48.2 °F 88% 30.01 in 6.2 mi SSW 5.8 mph - N/A   Mostly Cloudy
10:50 AM 53.6 °F - 48.2 °F 82% 30.01 in 6.2 mi SSW 9.2 mph - N/A   Mostly Cloudy
11:20 AM 53.6 °F - 48.2 °F 82% 30.01 in 6.2 mi SSW 9.2 mph - N/A   Mostly Cloudy
11:50 AM 55.4 °F - 48.2 °F 77% 30.01 in 6.2 mi SSW 9.2 mph - N/A   Mostly Cloudy
12:20 PM 57.2 °F - 48.2 °F 72% 30.01 in 6.2 mi SSW 10.4 mph - N/A   Partly Cloudy
12:50 PM 59 °F - 47 °F 53% 30.02 in 8 mi SSW 12.7 mph - -  
12:50 PM 59.0 °F - 46.4 °F 63% 30.01 in 6.2 mi SW 12.7 mph - N/A   Partly Cloudy
1:20 PM 59.0 °F - 46.4 °F 63% 30.01 in 6.2 mi SW 13.8 mph - N/A   Partly Cloudy
1:50 PM 59.0 °F - 48.2 °F 67% 30.01 in 6.2 mi SW 13.8 mph - N/A   Partly Cloudy
2:20 PM 60.8 °F - 48.2 °F 63% 30.01 in 6.2 mi SW 12.7 mph - N/A   Partly Cloudy
2:50 PM 60.8 °F - 48.2 °F 63% 30.01 in 6.2 mi SW 11.5 mph - N/A   Partly Cloudy
3:20 PM 60.8 °F - 48.2 °F 63% 30.01 in 6.2 mi SW 11.5 mph - N/A   Partly Cloudy
3:50 PM 61 °F - 49 °F 54% 30.01 in 10 mi SSW 10.4 mph - -  
3:50 PM 60.8 °F - 50.0 °F 68% 30.01 in 6.2 mi SW 11.5 mph - N/A   Partly Cloudy
4:20 PM 60.8 °F - 50.0 °F 68% 30.01 in 6.2 mi SW 9.2 mph - N/A   Partly Cloudy
4:50 PM 60.8 °F - 50.0 °F 68% 30.01 in 6.2 mi SW 9.2 mph - N/A   Scattered Clouds
5:20 PM 60.8 °F - 50.0 °F 68% 30.01 in 6.2 mi SW 11.5 mph - N/A   Partly Cloudy
5:50 PM 60.8 °F - 51.8 °F 72% 30.01 in 6.2 mi SSW 6.9 mph - N/A   Scattered Clouds
6:20 PM 60.8 °F - 51.8 °F 72% 30.01 in 6.2 mi SSW 6.9 mph - N/A   Partly Cloudy
6:50 PM 58 °F - 50 °F 68% 30.04 in 19 mi SSW 4.6 mph - -   Overcast
6:50 PM 59.0 °F - 50.0 °F 72% 30.04 in 6.2 mi Variable 3.5 mph - N/A   Scattered Clouds
7:20 PM 59.0 °F - 51.8 °F 77% 30.04 in 6.2 mi South 5.8 mph - N/A   Scattered Clouds
7:50 PM 57.2 °F - 50.0 °F 77% 30.01 in 6.2 mi South 6.9 mph - N/A   Partly Cloudy
8:20 PM 57.2 °F - 50.0 °F 77% 30.04 in 6.2 mi South 8.1 mph - N/A   Partly Cloudy
8:50 PM 55.4 °F - 50.0 °F 82% 30.04 in 6.2 mi South 8.1 mph - N/A   Partly Cloudy
9:20 PM 55.4 °F - 48.2 °F 77% 30.04 in - South 6.9 mph - N/A   Clear
9:50 PM 54 °F - 48 °F 74% 30.05 in 13 mi South 9.2 mph - -   Mostly Cloudy
9:50 PM 55.4 °F - 48.2 °F 77% 30.04 in - South 6.9 mph - N/A   Clear
10:20 PM 53.6 °F - 48.2 °F 82% 30.04 in - South 5.8 mph - N/A   Clear
10:50 PM 55.4 °F - 48.2 °F 77% 30.06 in - South 8.1 mph - N/A   Clear
11:20 PM 53.6 °F - 48.2 °F 82% 30.06 in - South 8.1 mph - N/A   Clear
11:50 PM 53.6 °F - 48.2 °F 82% 30.04 in - South 5.8 mph - N/A   Clear